Simultaneous Nadir Overpasses (SNOs) Predictions

Prediction of SNOs between GOES-14 and NPP Satellite Orbit:

Table of predicted SNOs for the next 14.0 days since TLE Epoch: 5/22/2021
Index Date Time (GOES-14) GOES-14 Lat,Lon NPP Lat,Lon Distance(km) Time Diff (sec)
1 05/22/2021 20:14:06 -0.12,-104.32 0.27,-102.72 182.48 80
2 05/24/2021 08:35:55 0.09,-104.14 0.94,-107.99 437.52 80
3 05/25/2021 08:19:50 0.10,-104.15 -0.04,-103.45 79.14 80
4 05/27/2021 20:23:05 -0.08,-104.32 -0.06,-104.24 8.43 80
5 05/30/2021 08:23:29 0.08,-104.13 0.29,-104.97 97.03 80
6 05/31/2021 08:07:25 0.09,-104.13 -0.75,-100.45 419.76 80
7 06/01/2021 20:29:24 -0.06,-104.32 -0.38,-105.77 165.48 80
8 06/02/2021 20:07:59 -0.08,-104.31 0.60,-101.23 350.86 80
9 06/04/2021 08:29:47 0.06,-104.13 0.61,-106.50 271.04 80
